YAOGAN-31 A (43275 NORAD) Tracking and Keplerian Element Data

This shows tracking and keplerian element data for the satellite.

Feedback or suggestion? Click here.




ElementValue
Catalog43275
NameYAOGAN-31 A
Epoch Orbit402
Epoch Day130.20516376
Epoch Year2018
RAAN135.5309
Inclination63.405
Eccentricity0.0010657
Argument of Perigee8.3728
Mean Anonmoly351.7451
Mean Motion13.45177014
Decay Rate-3.1E-07
L11 43275U 18034A 18130.20516376 -.00000031 00000-0 10000-3 0 9999
L22 43275 63.4050 135.5309 0010657 8.3728 351.7451 13.45177014 4029

Live tracking and technical data element details for YAOGAN-31 A (NORAD 43275). YAOGAN-31 A can be tracked NOW for your location showing map with azimuth and elevation plus other details from your city location.

Track the satellite on the map from your city or location and see movement details for azimuth, elevation, latitude, longitude, range, height, and movement on the map or in text.







IsCatalogInMostPopularTable: catalog: 43275, numindb: 29
Update: records affected: 1



GetName: 43275 YAOGAN-31 A

Hit Count: updated at: Thu, 19 Jul 2018 04:01:31 GMT